This demonstration page uses our WeatherBlox Daily Observations layout. Learn more.

Left ArrowRight Arrow

34.16533, -84.80231

Hourly Observations for April 20, 2022

Temp ( °F °C ) Dew Point ( °F °C ) Humidity (%) Winds ( mph kmh ) Pressure ( in mb ) Visibility ( mi km ) Precip ( " mm )
12:15 am 00:15 Clear 45 7 39 4 81 81 Calm 30.27 1025 10 16 0.00 0.00
12:35 am 00:35 Clear 43 6 37 3 81 81 Calm 30.28 1025 10 16 0.00 0.00
12:55 am 00:55 Clear 43 6 39 4 87 87 Calm 30.28 1025 10 16 0.00 0.00
1:15 am 01:15 Clear 41 5 39 4 93 93 Calm 30.29 1026 10 16 0.00 0.00
1:35 am 01:35 Clear 41 5 39 4 93 93 Calm 30.30 1026 10 16 0.00 0.00
1:55 am 01:55 Clear 41 5 39 4 93 93 Calm 30.29 1026 10 16 0.00 0.00
2:15 am 02:15 Clear 41 5 39 4 93 93 Calm 30.29 1026 10 16 0.00 0.00
2:35 am 02:35 Clear 41 5 39 4 93 93 Calm 30.30 1026 10 16 0.00 0.00
2:55 am 02:55 Clear 41 5 39 4 93 93 Calm 30.30 1026 10 16 0.00 0.00
3:15 am 03:15 Clear 39 4 37 3 93 93 Calm 30.31 1026 10 16 0.00 0.00
3:35 am 03:35 Clear 39 4 37 3 93 93 Calm 30.31 1026 10 16 0.00 0.00
3:55 am 03:55 Clear 39 4 37 3 93 93 Calm 30.32 1027 10 16 0.00 0.00
4:15 am 04:15 Clear 39 4 37 3 93 93 Calm 30.32 1027 10 16 0.00 0.00
4:35 am 04:35 Clear 39 4 37 3 93 93 Calm 30.32 1027 10 16 0.00 0.00
4:55 am 04:55 Clear 39 4 37 3 93 93 Calm 30.32 1027 10 16 0.00 0.00
5:15 am 05:15 Clear 39 4 37 3 93 93 Calm 30.33 1027 10 16 0.00 0.00
5:35 am 05:35 Clear 37 3 37 3 100 100 Calm 30.33 1027 10 16 0.00 0.00
5:55 am 05:55 Clear 37 3 37 3 100 100 E 3 6 30.34 1027 10 16 0.00 0.00
6:15 am 06:15 Clear 37 3 37 3 100 100 Calm 30.34 1027 10 16 0.00 0.00
6:35 am 06:35 Clear 37 3 37 3 100 100 Calm 30.35 1028 10 16 0.00 0.00
6:55 am 06:55 Clear 37 3 37 3 100 100 Calm 30.35 1028 10 16 0.00 0.00
7:15 am 07:15 Sunny 39 4 37 3 93 93 Calm 30.36 1028 10 16 0.00 0.00
7:35 am 07:35 Sunny 39 4 37 3 93 93 Calm 30.36 1028 10 16 0.00 0.00
7:55 am 07:55 Sunny 41 5 39 4 93 93 Calm 30.36 1028 10 16 0.00 0.00
8:15 am 08:15 Sunny 43 6 39 4 87 87 VRB 3 6 30.37 1028 10 16 0.00 0.00
8:35 am 08:35 Sunny 46 8 37 3 71 71 VRB 7 11 30.37 1028 10 16 0.00 0.00
8:55 am 08:55 Sunny 48 9 36 2 62 62 E 12 19 30.35 1028 10 16 0.00 0.00
9:15 am 09:15 Sunny 50 10 34 1 54 54 ESE 12 19 30.35 1028 10 16 0.00 0.00
9:35 am 09:35 Sunny 54 12 34 1 47 47 E 9 15 30.34 1028 10 16 0.00 0.00
9:55 am 09:55 Sunny 55 13 32 0 41 41 ESE 13 20 30.33 1027 10 16 0.00 0.00
10:15 am 10:15 Sunny 57 14 32 0 39 39 ESE 12 19 30.33 1027 10 16 0.00 0.00
10:35 am 10:35 Sunny 59 15 32 0 36 36 E 10 17 30.33 1027 10 16 0.00 0.00
10:55 am 10:55 Sunny 61 16 32 0 34 34 ESE 12 19 30.33 1027 10 16 0.00 0.00
11:15 am 11:15 Sunny 63 17 32 0 32 32 SE 14 22 30.33 1027 10 16 0.00 0.00
11:35 am 11:35 Sunny 63 17 32 0 32 32 ESE 12 19 30.33 1027 10 16 0.00 0.00
11:55 am 11:55 Sunny 64 18 32 0 30 30 ESE 13 20 30.33 1027 10 16 0.00 0.00
12:15 pm 12:15 Sunny 66 19 32 0 28 28 SE 12 19 30.32 1027 10 16 0.00 0.00
12:35 pm 12:35 Sunny 66 19 32 0 28 28 ESE 14 22 30.31 1027 10 16 0.00 0.00
12:55 pm 12:55 Sunny 68 20 30 -1 24 24 SE 10 17 30.30 1026 10 16 0.00 0.00
1:15 pm 13:15 Sunny 70 21 32 0 25 25 ESE 10 17 30.30 1026 10 16 0.00 0.00
1:35 pm 13:35 Sunny 70 21 32 0 25 25 ESE 10 17 30.29 1026 10 16 0.00 0.00
1:55 pm 13:55 Sunny 72 22 32 0 23 23 ESE 9 15 30.29 1026 10 16 0.00 0.00
2:15 pm 14:15 Sunny 72 22 32 0 23 23 SE 10 17 30.28 1025 10 16 0.00 0.00
2:35 pm 14:35 Sunny 72 22 34 1 25 25 E 14 22 30.27 1025 10 16 0.00 0.00
2:55 pm 14:55 Sunny 73 23 34 1 23 23 ESE 10 17 30.25 1025 10 16 0.00 0.00
3:15 pm 15:15 Sunny 72 22 34 1 25 25 ESE 14 22 30.25 1024 10 16 0.00 0.00
3:35 pm 15:35 Sunny 72 22 34 1 25 25 SE 12 19 30.25 1024 10 16 0.00 0.00
3:55 pm 15:55 Sunny 73 23 34 1 23 23 SSE 10 17 30.23 1024 10 16 0.00 0.00
4:15 pm 16:15 Sunny 73 23 34 1 23 23 SE 13 20 30.22 1024 10 16 0.00 0.00
4:35 pm 16:35 Sunny 72 22 36 2 27 27 SE 9 15 30.23 1024 10 16 0.00 0.00
4:55 pm 16:55 Sunny 72 22 36 2 27 27 VRB 6 9 30.23 1024 10 16 0.00 0.00
5:15 pm 17:15 Sunny 72 22 36 2 27 27 SE 12 19 30.23 1024 10 16 0.00 0.00
5:35 pm 17:35 Sunny 72 22 36 2 27 27 SSE 14 22 30.23 1024 10 16 0.00 0.00
5:55 pm 17:55 Sunny 70 21 34 1 27 27 ESE 14 22 30.23 1024 10 16 0.00 0.00
6:15 pm 18:15 Sunny 70 21 36 2 29 29 VRB 7 11 30.23 1024 10 16 0.00 0.00
6:35 pm 18:35 Sunny 70 21 36 2 29 29 ESE 9 15 30.22 1023 10 16 0.00 0.00
6:55 pm 18:55 Sunny 68 20 36 2 30 30 ESE 7 11 30.22 1023 10 16 0.00 0.00
7:15 pm 19:15 Sunny 68 20 37 3 33 33 ESE 9 15 30.22 1023 10 16 0.00 0.00
7:35 pm 19:35 Sunny 68 20 37 3 33 33 VRB 6 9 30.23 1024 10 16 0.00 0.00
7:55 pm 19:55 Sunny 68 20 39 4 35 35 ESE 6 9 30.23 1024 10 16 0.00 0.00
8:15 pm 20:15 Clear 66 19 39 4 37 37 ESE 5 7 30.24 1024 10 16 0.00 0.00
8:35 pm 20:35 Clear 66 19 39 4 37 37 VRB 5 7 30.25 1025 10 16 0.00 0.00
8:55 pm 20:55 Clear 64 18 39 4 40 40 ESE 6 9 30.26 1025 10 16 0.00 0.00
9:15 pm 21:15 Clear 64 18 41 5 43 43 ESE 6 9 30.26 1025 10 16 0.00 0.00
9:35 pm 21:35 Clear 63 17 41 5 45 45 ESE 3 6 30.27 1025 10 16 0.00 0.00
9:55 pm 21:55 Clear 63 17 41 5 45 45 ESE 5 7 30.28 1025 10 16 0.00 0.00
10:15 pm 22:15 Clear 63 17 43 6 49 49 ESE 5 7 30.28 1025 10 16 0.00 0.00
10:35 pm 22:35 Clear 63 17 43 6 49 49 ESE 5 7 30.29 1026 10 16 0.00 0.00
10:55 pm 22:55 Mostly Clear 61 16 43 6 52 52 E 5 7 30.29 1026 10 16 0.00 0.00
11:15 pm 23:15 Partly Cloudy 61 16 43 6 52 52 E 6 9 30.29 1026 10 16 0.00 0.00
11:35 pm 23:35 Mostly Cloudy 63 17 41 5 45 45 E 8 13 30.29 1026 10 16 0.00 0.00
11:55 pm 23:55 Cloudy 61 16 41 5 48 48 ESE 8 13 30.29 1026 10 16 0.00 0.00

Powered by AerisWeather